Location: Bishausen
(51.6334°N, 9.9631°E)
Time: 11:33:47
(UTC+00:00)

Cosmos 2333 Rocket - Pass Details

Date: 23 May 2024
Orbit: 838 x 863 km, 70.8° (Epoch: 19 June)

Event Time Altitude Azimuth Distance (km) Brightness Sun altitude
Rises 02:29:55 0° 325° (NW) 3,426 5.5 -6.3°
Reaches altitude 10° 02:32:31 10° 317° (NW) 2,490 4.7 -6.0°
Maximum altitude 02:37:42 37° 252° (WSW) 1,306 2.8 -5.5°
Drops below altitude 10° 02:42:54 10° 187° (S) 2,489 4.2 -4.9°
Sets 02:45:31 0° 179° (S) 3,424 5.0 -4.6°
